Location: Gu�tanj
(46.5431°N, 14.9692°E)
Time: 15:24:23
(UTC+00:00)

Cosmos 1666 - Pass Details

Date: 03 March 2021
Orbit: 497 x 518 km, 82.5° (Epoch: 14 April)

Event Time Altitude Azimuth Distance (km) Brightness Sun altitude
Rises 18:28:08 0° 183° (S) 2,572 6.2 -17.8°
Reaches altitude 10° 18:30:14 10° 182° (S) 1,695 5.2 -18.1°
Maximum altitude 18:33:56 74° 97° (E) 525 2.4 -18.8°
Drops below altitude 10° 18:37:40 10° 13° (NNE) 1,716 5.3 -19.4°
Sets 18:39:48 0° 11° (N) 2,607 6.3 -19.8°
